RYR90RC LGKR-LIME

Flight info

Callsign RYR90RC
Flight time 1h 54m
Altitude 36000
Route OLGAT DCT OKIMO DCT ENOXA DCT GARGA DCT ANC DCT BOA DCT OGPUD DCT BETMU DCT OSBUL
Aircraft B738/M-SDE2E3FGHIRWXY/LB1

Departure

Time 2026-04-28 08:17
Airport Corfu Ioannis Kapodistrias International Airport (LGKR)

Arrival

Time 2026-04-28 10:12
Airport Il Caravaggio International Airport (LIME)
Time Latitude Longitude Altitude Speed Heading
2026-04-28 08:01 39.60764 19.91332 8 ft 0 kts 78°
2026-04-28 08:11 39.60763 19.91327 8 ft 2 kts 78°
2026-04-28 08:11 39.60760 19.91307 8 ft 2 kts 78°
2026-04-28 08:11 39.60757 19.91289 8 ft 2 kts 78°
2026-04-28 08:12 39.60754 19.91269 8 ft 2 kts 78°
2026-04-28 08:12 39.60751 19.91250 8 ft 2 kts 78°
2026-04-28 08:12 39.60749 19.91238 8 ft 2 kts 74°
2026-04-28 08:12 39.60741 19.91221 7 ft 2 kts 41°
2026-04-28 08:13 39.60728 19.91212 7 ft 2 kts 14°
2026-04-28 08:13 39.60714 19.91210 7 ft 0 kts 351°
2026-04-28 08:13 39.60708 19.91212 7 ft 1 kts 347°
2026-04-28 08:13 39.60707 19.91212 7 ft 0 kts 347°
2026-04-28 08:15 39.60709 19.91212 7 ft 2 kts 347°
2026-04-28 08:15 39.60761 19.91197 8 ft 13 kts 348°
2026-04-28 08:15 39.60867 19.91170 9 ft 15 kts 349°
2026-04-28 08:15 39.60979 19.91143 9 ft 18 kts 348°
2026-04-28 08:16 39.61105 19.91108 9 ft 17 kts 348°
2026-04-28 08:16 39.61206 19.91060 11 ft 13 kts 310°
2026-04-28 08:16 39.61235 19.90966 12 ft 8 kts 252°
2026-04-28 08:16 39.61183 19.90961 10 ft 12 kts 170°
2026-04-28 08:17 39.60885 19.91037 9 ft 78 kts 169°
2026-04-28 08:17 39.60133 19.91231 6 ft 138 kts 169°
2026-04-28 08:17 39.59040 19.91509 171 ft 170 kts 169°
2026-04-28 08:17 39.57896 19.91812 811 ft 170 kts 162°
2026-04-28 08:18 39.56890 19.92654 1307 ft 181 kts 123°
2026-04-28 08:18 39.56511 19.94270 1739 ft 193 kts 98°
2026-04-28 08:18 39.56041 19.95929 2083 ft 206 kts 130°
2026-04-28 08:18 39.54839 19.97065 2443 ft 220 kts 152°
2026-04-28 08:19 39.53492 19.98044 3000 ft 224 kts 146°
2026-04-28 08:19 39.52220 19.99218 3602 ft 226 kts 141°
2026-04-28 08:19 39.50990 20.00487 4243 ft 226 kts 141°
2026-04-28 08:19 39.49771 20.01761 4858 ft 226 kts 141°
2026-04-28 08:20 39.48546 20.03021 5471 ft 227 kts 142°
2026-04-28 08:20 39.47304 20.04287 6068 ft 228 kts 142°
2026-04-28 08:20 39.46052 20.05561 6663 ft 230 kts 142°
2026-04-28 08:20 39.44775 20.06862 7223 ft 235 kts 141°
2026-04-28 08:21 39.43507 20.08234 7698 ft 244 kts 132°
2026-04-28 08:21 39.42625 20.10178 8028 ft 257 kts 104°
2026-04-28 08:21 39.42434 20.12471 8574 ft 260 kts 85°
2026-04-28 08:21 39.42752 20.14782 9215 ft 261 kts 71°
2026-04-28 08:22 39.43624 20.16823 9836 ft 262 kts 46°
2026-04-28 08:22 39.45081 20.18207 10483 ft 263 kts 25°
2026-04-28 08:22 39.46852 20.18957 11105 ft 267 kts
2026-04-28 08:22 39.48697 20.18921 11678 ft 271 kts 345°
2026-04-28 08:23 39.50411 20.17835 12346 ft 274 kts 322°
2026-04-28 08:23 39.51733 20.16070 13007 ft 276 kts 306°
2026-04-28 08:23 39.52681 20.13895 13684 ft 279 kts 296°
2026-04-28 08:23 39.53470 20.11574 14353 ft 281 kts 295°
2026-04-28 08:24 39.54234 20.09249 15017 ft 282 kts 295°
2026-04-28 08:24 39.55029 20.06902 15700 ft 283 kts 296°
2026-04-28 08:24 39.55840 20.04575 16351 ft 285 kts 296°
2026-04-28 08:24 39.56668 20.02234 16958 ft 287 kts 297°
2026-04-28 08:25 39.57503 19.99877 17565 ft 290 kts 297°
2026-04-28 08:25 39.58341 19.97510 18174 ft 291 kts 297°
2026-04-28 08:25 39.59188 19.95113 18756 ft 293 kts 297°
2026-04-28 08:26 39.60910 19.90224 19851 ft 300 kts 297°
2026-04-28 08:26 39.61827 19.87742 20100 ft 313 kts 300°
2026-04-28 08:26 39.62910 19.85253 20336 ft 325 kts 303°
2026-04-28 08:26 39.64169 19.82741 20642 ft 335 kts 306°
2026-04-28 08:27 39.65558 19.80279 21172 ft 337 kts 310°
2026-04-28 08:27 39.67066 19.77918 21716 ft 340 kts 313°
2026-04-28 08:27 39.68672 19.75601 22246 ft 342 kts 314°
2026-04-28 08:27 39.70291 19.73358 22759 ft 345 kts 315°
2026-04-28 08:28 39.71967 19.71075 23254 ft 348 kts 315°
2026-04-28 08:28 39.73655 19.68789 23734 ft 351 kts 315°
2026-04-28 08:28 39.75339 19.66506 24216 ft 353 kts 315°
2026-04-28 08:28 39.77049 19.64189 24671 ft 356 kts 315°
2026-04-28 08:29 39.78788 19.61830 25159 ft 358 kts 315°
2026-04-28 08:29 39.80509 19.59493 25607 ft 361 kts 315°
2026-04-28 08:29 39.82260 19.57115 26067 ft 363 kts 315°
2026-04-28 08:29 39.84030 19.54710 26488 ft 365 kts 315°
2026-04-28 08:30 39.85811 19.52293 26909 ft 368 kts 315°
2026-04-28 08:30 39.87579 19.49911 27339 ft 369 kts 315°
2026-04-28 08:30 39.89408 19.47457 27728 ft 372 kts 315°
2026-04-28 08:30 39.91217 19.45032 28106 ft 375 kts 315°
2026-04-28 08:31 39.93052 19.42571 28503 ft 376 kts 315°
2026-04-28 08:31 39.94901 19.40089 28864 ft 379 kts 315°
2026-04-28 08:31 39.96760 19.37589 29239 ft 381 kts 315°
2026-04-28 08:31 39.98619 19.35086 29614 ft 383 kts 315°
2026-04-28 08:32 40.00494 19.32559 29957 ft 385 kts 314°
2026-04-28 08:32 40.02365 19.30034 30329 ft 386 kts 314°
2026-04-28 08:32 40.04257 19.27480 30623 ft 389 kts 314°
2026-04-28 08:32 40.06158 19.24909 30983 ft 390 kts 314°
2026-04-28 08:33 40.08033 19.22374 31287 ft 391 kts 314°
2026-04-28 08:33 40.09932 19.19803 31573 ft 393 kts 314°
2026-04-28 08:33 40.11835 19.17223 31899 ft 395 kts 314°
2026-04-28 08:33 40.13776 19.14591 32185 ft 397 kts 314°
2026-04-28 08:34 40.15699 19.11980 32471 ft 399 kts 314°
2026-04-28 08:34 40.17627 19.09361 32741 ft 401 kts 314°
2026-04-28 08:34 40.19566 19.06724 33036 ft 402 kts 314°
2026-04-28 08:34 40.21502 19.04090 33281 ft 404 kts 314°
2026-04-28 08:35 40.23481 19.01394 33586 ft 405 kts 314°
2026-04-28 08:35 40.25453 18.98704 33844 ft 407 kts 314°
2026-04-28 08:35 40.27413 18.96033 34124 ft 408 kts 314°
2026-04-28 08:35 40.29398 18.93327 34322 ft 411 kts 314°
2026-04-28 08:36 40.31390 18.90612 34577 ft 412 kts 315°
2026-04-28 08:36 40.33376 18.87902 34801 ft 413 kts 315°
2026-04-28 08:36 40.35374 18.85174 35018 ft 415 kts 314°
2026-04-28 08:36 40.37385 18.82425 35210 ft 417 kts 314°
2026-04-28 08:37 40.39404 18.79661 35439 ft 417 kts 314°
2026-04-28 08:37 40.41414 18.76908 35700 ft 416 kts 314°
2026-04-28 08:37 40.43395 18.74190 36025 ft 414 kts 314°
2026-04-28 08:38 40.47412 18.68673 36070 ft 414 kts 314°
2026-04-28 08:38 40.51366 18.63231 36067 ft 412 kts 314°
2026-04-28 08:39 40.55345 18.57744 36071 ft 412 kts 314°
2026-04-28 08:39 40.59298 18.52286 36074 ft 413 kts 314°
2026-04-28 08:40 40.63278 18.46780 36069 ft 413 kts 314°
2026-04-28 08:40 40.67247 18.41279 36070 ft 415 kts 314°
2026-04-28 08:41 40.71240 18.35735 36070 ft 414 kts 314°
2026-04-28 08:41 40.75198 18.30229 36073 ft 415 kts 314°
2026-04-28 08:42 40.79187 18.24668 36074 ft 414 kts 314°
2026-04-28 08:42 40.83147 18.19139 36074 ft 414 kts 314°
2026-04-28 08:43 40.87116 18.13586 36071 ft 415 kts 314°
2026-04-28 08:43 40.91108 18.07991 36075 ft 416 kts 314°
2026-04-28 08:44 40.95116 18.02362 36072 ft 417 kts 314°
2026-04-28 08:44 40.99073 17.96790 36071 ft 416 kts 314°
2026-04-28 08:45 41.03048 17.91178 36071 ft 417 kts 314°
2026-04-28 08:45 41.07023 17.85555 36067 ft 416 kts 314°
2026-04-28 08:46 41.11007 17.79908 36067 ft 416 kts 314°
2026-04-28 08:46 41.14965 17.74291 36064 ft 416 kts 314°
2026-04-28 08:47 41.18919 17.68667 36064 ft 415 kts 314°
2026-04-28 08:47 41.22884 17.63022 36064 ft 415 kts 314°
2026-04-28 08:48 41.26828 17.57412 36061 ft 415 kts 314°
2026-04-28 08:48 41.30785 17.51775 36060 ft 415 kts 314°
2026-04-28 08:49 41.34737 17.46133 36059 ft 415 kts 314°
2026-04-28 08:49 41.38688 17.40482 36057 ft 415 kts 314°
2026-04-28 08:50 41.42612 17.34856 36057 ft 415 kts 313°
2026-04-28 08:50 41.46548 17.29203 36058 ft 415 kts 313°
2026-04-28 08:51 41.50489 17.23531 36056 ft 414 kts 313°
2026-04-28 08:51 41.54435 17.17841 36054 ft 415 kts 313°
2026-04-28 08:52 41.58343 17.12196 36051 ft 415 kts 313°
2026-04-28 08:52 41.62280 17.06497 36051 ft 414 kts 313°
2026-04-28 08:53 41.66174 17.00850 36053 ft 414 kts 313°
2026-04-28 08:53 41.70086 16.95167 36047 ft 414 kts 313°
2026-04-28 08:54 41.73985 16.89491 36048 ft 413 kts 313°
2026-04-28 08:54 41.77890 16.83796 36044 ft 414 kts 313°
2026-04-28 08:55 41.81802 16.78078 36046 ft 414 kts 313°
2026-04-28 08:55 41.85687 16.72391 36041 ft 413 kts 313°
2026-04-28 08:56 41.89588 16.66666 36042 ft 414 kts 313°
2026-04-28 08:56 41.93463 16.60970 36043 ft 413 kts 313°
2026-04-28 08:57 41.97362 16.55226 36041 ft 411 kts 313°
2026-04-28 08:57 42.01215 16.49543 36040 ft 412 kts 313°
2026-04-28 08:58 42.05108 16.43786 36039 ft 413 kts 313°
2026-04-28 08:58 42.08997 16.38024 36039 ft 413 kts 313°
2026-04-28 08:59 42.12868 16.32278 36039 ft 412 kts 312°
2026-04-28 08:59 42.16737 16.26524 36037 ft 411 kts 312°
2026-04-28 09:00 42.20586 16.20788 36040 ft 411 kts 312°
2026-04-28 09:00 42.24442 16.15032 36036 ft 411 kts 312°
2026-04-28 09:01 42.28155 16.09130 36037 ft 412 kts 307°
2026-04-28 09:01 42.31487 16.02799 36036 ft 411 kts 304°
2026-04-28 09:02 42.34733 15.96377 36034 ft 412 kts 304°
2026-04-28 09:02 42.37971 15.90013 36045 ft 410 kts 305°
2026-04-28 09:03 42.41229 15.83661 36054 ft 409 kts 305°
2026-04-28 09:03 42.44490 15.77323 36057 ft 410 kts 305°
2026-04-28 09:04 42.47760 15.70967 36055 ft 409 kts 305°
2026-04-28 09:04 42.51018 15.64624 36056 ft 409 kts 305°
2026-04-28 09:05 42.54265 15.58293 36054 ft 409 kts 305°
2026-04-28 09:05 42.57527 15.51915 36060 ft 409 kts 305°
2026-04-28 09:06 42.60773 15.45557 36057 ft 408 kts 305°
2026-04-28 09:06 42.64003 15.39216 36048 ft 408 kts 305°
2026-04-28 09:07 42.67225 15.32875 36038 ft 408 kts 304°
2026-04-28 09:07 42.70459 15.26500 36033 ft 408 kts 304°
2026-04-28 09:08 42.73674 15.20147 36031 ft 409 kts 304°
2026-04-28 09:08 42.76910 15.13740 36030 ft 409 kts 304°
2026-04-28 09:09 42.80147 15.07318 36032 ft 409 kts 304°
2026-04-28 09:09 42.83371 15.00906 36029 ft 408 kts 304°
2026-04-28 09:10 42.86579 14.94513 36030 ft 407 kts 304°
2026-04-28 09:10 42.89785 14.88112 36029 ft 406 kts 304°
2026-04-28 09:11 42.92979 14.81721 36028 ft 407 kts 304°
2026-04-28 09:11 42.96176 14.75307 36030 ft 406 kts 304°
2026-04-28 09:12 42.99368 14.68893 36032 ft 407 kts 304°
2026-04-28 09:12 43.02558 14.62466 36031 ft 407 kts 304°
2026-04-28 09:13 43.05741 14.56042 36031 ft 406 kts 304°
2026-04-28 09:13 43.08915 14.49622 36030 ft 405 kts 304°
2026-04-28 09:14 43.12057 14.43251 36029 ft 405 kts 304°
2026-04-28 09:14 43.15220 14.36823 36032 ft 405 kts 304°
2026-04-28 09:15 43.18397 14.30354 36032 ft 405 kts 303°
2026-04-28 09:15 43.21541 14.23939 36030 ft 404 kts 303°
2026-04-28 09:16 43.24670 14.17539 36033 ft 403 kts 303°
2026-04-28 09:16 43.27805 14.11115 36028 ft 404 kts 303°
2026-04-28 09:17 43.30944 14.04666 36032 ft 404 kts 303°
2026-04-28 09:17 43.34075 13.98221 36029 ft 405 kts 303°
2026-04-28 09:18 43.37204 13.91766 36029 ft 404 kts 303°
2026-04-28 09:18 43.40298 13.85371 36025 ft 403 kts 303°
2026-04-28 09:19 43.43401 13.78941 36032 ft 402 kts 303°
2026-04-28 09:19 43.46497 13.72514 36030 ft 403 kts 303°
2026-04-28 09:20 43.49587 13.66083 36031 ft 403 kts 303°
2026-04-28 09:20 43.52693 13.59605 36029 ft 403 kts 303°
2026-04-28 09:21 43.55777 13.53159 36040 ft 404 kts 303°
2026-04-28 09:21 43.58848 13.46723 36041 ft 400 kts 303°
2026-04-28 09:22 43.61842 13.40209 36046 ft 402 kts 302°
2026-04-28 09:22 43.64787 13.33628 36041 ft 401 kts 301°
2026-04-28 09:23 43.67729 13.27044 36036 ft 402 kts 301°
2026-04-28 09:23 43.70689 13.20429 36036 ft 402 kts 301°
2026-04-28 09:24 43.73613 13.13893 36037 ft 402 kts 301°
2026-04-28 09:24 43.76544 13.07333 36031 ft 400 kts 301°
2026-04-28 09:25 43.79462 13.00790 36030 ft 400 kts 301°
2026-04-28 09:25 43.82389 12.94211 36037 ft 401 kts 301°
2026-04-28 09:26 43.85294 12.87669 36030 ft 398 kts 301°
2026-04-28 09:26 43.88194 12.81122 36031 ft 399 kts 301°
2026-04-28 09:27 43.92537 12.71286 36033 ft 399 kts 301°
2026-04-28 09:27 43.95446 12.64682 36033 ft 399 kts 301°
2026-04-28 09:28 43.98340 12.58097 36029 ft 398 kts 301°
2026-04-28 09:28 44.01224 12.51518 36039 ft 399 kts 301°
2026-04-28 09:29 44.04104 12.44933 36035 ft 398 kts 301°
2026-04-28 09:29 44.06959 12.38391 36032 ft 397 kts 301°
2026-04-28 09:30 44.09846 12.31760 36033 ft 398 kts 300°
2026-04-28 09:30 44.12696 12.25201 36035 ft 398 kts 300°
2026-04-28 09:31 44.15534 12.18651 36037 ft 398 kts 300°
2026-04-28 09:31 44.18423 12.11970 36034 ft 398 kts 300°
2026-04-28 09:32 44.21265 12.05382 36029 ft 399 kts 300°
2026-04-28 09:32 44.24126 11.98736 36032 ft 398 kts 300°
2026-04-28 09:33 44.26967 11.92122 36031 ft 396 kts 300°
2026-04-28 09:33 44.29811 11.85485 36034 ft 397 kts 300°
2026-04-28 09:34 44.32624 11.78906 36040 ft 396 kts 300°
2026-04-28 09:34 44.35460 11.72257 36033 ft 396 kts 300°
2026-04-28 09:35 44.38270 11.65650 36040 ft 396 kts 300°
2026-04-28 09:35 44.41105 11.58973 36032 ft 396 kts 300°
2026-04-28 09:36 44.43887 11.52406 35895 ft 393 kts 300°
2026-04-28 09:36 44.45287 11.49096 35607 ft 385 kts 300°
2026-04-28 09:36 44.46643 11.45887 35306 ft 378 kts 300°
2026-04-28 09:37 44.47977 11.42724 34892 ft 374 kts 300°
2026-04-28 09:37 44.49292 11.39605 34452 ft 371 kts 300°
2026-04-28 09:37 44.50600 11.36497 34010 ft 366 kts 300°
2026-04-28 09:37 44.51882 11.33446 33591 ft 361 kts 299°
2026-04-28 09:38 44.53152 11.30423 33181 ft 357 kts 298°
2026-04-28 09:38 44.54298 11.27348 32768 ft 352 kts 294°
2026-04-28 09:38 44.55270 11.24231 32365 ft 347 kts 291°
2026-04-28 09:38 44.56163 11.21112 31970 ft 343 kts 291°
2026-04-28 09:39 44.57056 11.17919 31573 ft 357 kts 291°
2026-04-28 09:39 44.57982 11.14620 31127 ft 368 kts 291°
2026-04-28 09:39 44.58932 11.11281 30689 ft 366 kts 291°
2026-04-28 09:39 44.59878 11.07980 30257 ft 361 kts 292°
2026-04-28 09:40 44.60809 11.04750 29831 ft 356 kts 292°
2026-04-28 09:40 44.61748 11.01503 29405 ft 352 kts 292°
2026-04-28 09:40 44.62662 10.98338 28987 ft 348 kts 292°
2026-04-28 09:40 44.63565 10.95199 28574 ft 343 kts 291°
2026-04-28 09:41 44.64455 10.92102 28161 ft 339 kts 291°
2026-04-28 09:41 44.65340 10.89019 27746 ft 335 kts 291°
2026-04-28 09:41 44.66213 10.85978 27350 ft 330 kts 291°
2026-04-28 09:41 44.67064 10.83005 26951 ft 326 kts 291°
2026-04-28 09:42 44.67905 10.80065 26541 ft 323 kts 291°
2026-04-28 09:42 44.68737 10.77149 26140 ft 319 kts 291°
2026-04-28 09:42 44.69561 10.74254 25752 ft 315 kts 291°
2026-04-28 09:42 44.70370 10.71411 25369 ft 312 kts 291°
2026-04-28 09:43 44.71176 10.68570 24991 ft 320 kts 291°
2026-04-28 09:43 44.72018 10.65596 24564 ft 333 kts 291°
2026-04-28 09:43 44.72876 10.62570 24150 ft 331 kts 290°
2026-04-28 09:43 44.73725 10.59573 23740 ft 327 kts 290°
2026-04-28 09:44 44.74570 10.56590 23325 ft 323 kts 290°
2026-04-28 09:44 44.75392 10.53683 22926 ft 319 kts 290°
2026-04-28 09:44 44.76210 10.50783 22528 ft 315 kts 290°
2026-04-28 09:44 44.77021 10.47907 22123 ft 312 kts 290°
2026-04-28 09:45 44.77813 10.45094 21739 ft 308 kts 290°
2026-04-28 09:45 44.78596 10.42306 21362 ft 304 kts 290°
2026-04-28 09:45 44.79370 10.39551 20978 ft 301 kts 290°
2026-04-28 09:45 44.80138 10.36819 20602 ft 298 kts 290°
2026-04-28 09:46 44.80897 10.34111 20230 ft 295 kts 290°
2026-04-28 09:46 44.81738 10.31487 19856 ft 293 kts 297°
2026-04-28 09:46 44.82933 10.29129 19489 ft 306 kts 311°
2026-04-28 09:46 44.84604 10.27148 19084 ft 320 kts 322°
2026-04-28 09:47 44.86467 10.25422 18665 ft 320 kts 325°
2026-04-28 09:47 44.88360 10.23784 18257 ft 317 kts 326°
2026-04-28 09:47 44.90257 10.22159 17855 ft 315 kts 325°
2026-04-28 09:47 44.92130 10.20537 17438 ft 313 kts 325°
2026-04-28 09:48 44.93973 10.18920 17039 ft 311 kts 325°
2026-04-28 09:48 44.95792 10.17310 16634 ft 308 kts 325°
2026-04-28 09:48 44.97608 10.15694 16247 ft 306 kts 325°
2026-04-28 09:48 44.99408 10.14089 15848 ft 304 kts 325°
2026-04-28 09:49 45.01194 10.12494 15453 ft 303 kts 325°
2026-04-28 09:49 45.02986 10.10894 15109 ft 299 kts 325°
2026-04-28 09:49 45.04717 10.09349 14968 ft 288 kts 325°
2026-04-28 09:49 45.06390 10.07855 14680 ft 284 kts 325°
2026-04-28 09:50 45.08078 10.06340 14274 ft 284 kts 325°
2026-04-28 09:50 45.09748 10.04843 13913 ft 282 kts 326°
2026-04-28 09:50 45.11412 10.03350 13564 ft 280 kts 326°
2026-04-28 09:50 45.13062 10.01868 13212 ft 279 kts 326°
2026-04-28 09:51 45.14685 10.00410 12858 ft 278 kts 326°
2026-04-28 09:51 45.16339 9.98924 12493 ft 277 kts 326°
2026-04-28 09:51 45.17961 9.97464 12145 ft 275 kts 326°
2026-04-28 09:51 45.19585 9.96002 11794 ft 273 kts 326°
2026-04-28 09:52 45.21191 9.94555 11461 ft 272 kts 326°
2026-04-28 09:52 45.22847 9.93296 11227 ft 267 kts 338°
2026-04-28 09:52 45.24641 9.92833 11002 ft 263 kts
2026-04-28 09:52 45.26481 9.93094 10631 ft 263 kts 12°
2026-04-28 09:53 45.28165 9.94062 10317 ft 261 kts 36°
2026-04-28 09:53 45.29458 9.95859 10004 ft 258 kts 55°
2026-04-28 09:53 45.30270 9.98123 9691 ft 255 kts 77°
2026-04-28 09:53 45.30512 10.00598 9397 ft 251 kts 88°
2026-04-28 09:54 45.30613 10.03062 9092 ft 250 kts 85°
2026-04-28 09:54 45.31007 10.05498 9036 ft 253 kts 69°
2026-04-28 09:54 45.31772 10.07777 9036 ft 258 kts 63°
2026-04-28 09:54 45.32617 10.10066 9030 ft 257 kts 63°
2026-04-28 09:55 45.33461 10.12285 9028 ft 258 kts 58°
2026-04-28 09:55 45.34566 10.14306 9020 ft 258 kts 47°
2026-04-28 09:55 45.35849 10.16131 9019 ft 259 kts 44°
2026-04-28 09:55 45.37167 10.17913 9015 ft 259 kts 44°
2026-04-28 09:56 45.38521 10.19587 9011 ft 258 kts 35°
2026-04-28 09:56 45.40097 10.20887 9011 ft 259 kts 25°
2026-04-28 09:56 45.41756 10.21954 9011 ft 259 kts 23°
2026-04-28 09:56 45.43412 10.22984 9011 ft 259 kts 24°
2026-04-28 09:57 45.45057 10.24040 9006 ft 259 kts 23°
2026-04-28 09:57 45.46802 10.24643 8769 ft 261 kts 355°
2026-04-28 09:57 45.48497 10.23885 8533 ft 256 kts 324°
2026-04-28 09:57 45.49749 10.22075 8294 ft 253 kts 300°
2026-04-28 09:58 45.50473 10.19800 8050 ft 252 kts 284°
2026-04-28 09:58 45.50629 10.17345 7790 ft 250 kts 258°
2026-04-28 09:58 45.49988 10.15057 7562 ft 247 kts 239°
2026-04-28 09:58 45.49092 10.12945 7312 ft 248 kts 237°
2026-04-28 09:59 45.48224 10.10858 7065 ft 246 kts 242°
2026-04-28 09:59 45.47725 10.08499 6809 ft 247 kts 268°
2026-04-28 09:59 45.47927 10.06086 6582 ft 247 kts 283°
2026-04-28 09:59 45.48412 10.03722 6331 ft 247 kts 287°
2026-04-28 10:00 45.48924 10.01378 6085 ft 247 kts 286°
2026-04-28 10:00 45.49410 9.99010 5969 ft 243 kts 285°
2026-04-28 10:00 45.49879 9.96666 5970 ft 248 kts 287°
2026-04-28 10:00 45.50436 9.94343 5970 ft 248 kts 290°
2026-04-28 10:01 45.51054 9.92064 5973 ft 248 kts 291°
2026-04-28 10:01 45.51695 9.89776 5970 ft 247 kts 291°
2026-04-28 10:01 45.52331 9.87472 5976 ft 246 kts 291°
2026-04-28 10:01 45.52956 9.85168 5976 ft 247 kts 291°
2026-04-28 10:02 45.53572 9.82885 5976 ft 246 kts 291°
2026-04-28 10:02 45.54192 9.80589 5977 ft 246 kts 291°
2026-04-28 10:02 45.54802 9.78320 5979 ft 246 kts 290°
2026-04-28 10:02 45.55421 9.76028 5976 ft 246 kts 290°
2026-04-28 10:03 45.56044 9.73722 5977 ft 246 kts 290°
2026-04-28 10:03 45.56657 9.71445 5977 ft 247 kts 291°
2026-04-28 10:03 45.57286 9.69112 5979 ft 247 kts 291°
2026-04-28 10:03 45.57901 9.66823 5981 ft 248 kts 291°
2026-04-28 10:04 45.58520 9.64525 5982 ft 248 kts 291°
2026-04-28 10:04 45.59141 9.62212 5983 ft 248 kts 291°
2026-04-28 10:04 45.59763 9.59891 5984 ft 248 kts 291°
2026-04-28 10:04 45.60376 9.57601 5981 ft 242 kts 291°
2026-04-28 10:05 45.60965 9.55390 5984 ft 235 kts 290°
2026-04-28 10:05 45.61467 9.53136 5989 ft 236 kts 286°
2026-04-28 10:05 45.61889 9.50898 5991 ft 236 kts 285°
2026-04-28 10:05 45.62297 9.48609 5872 ft 239 kts 284°
2026-04-28 10:06 45.62714 9.46288 5553 ft 240 kts 285°
2026-04-28 10:06 45.63247 9.44025 5263 ft 239 kts 297°
2026-04-28 10:06 45.64311 9.42244 4992 ft 234 kts 333°
2026-04-28 10:06 45.65848 9.41724 4824 ft 229 kts
2026-04-28 10:07 45.67393 9.42212 4633 ft 227 kts 18°
2026-04-28 10:07 45.68911 9.42882 4423 ft 225 kts 22°
2026-04-28 10:07 45.70274 9.43883 4252 ft 216 kts 41°
2026-04-28 10:07 45.71070 9.45604 4081 ft 206 kts 78°
2026-04-28 10:08 45.71077 9.47608 3946 ft 196 kts 102°
2026-04-28 10:08 45.70740 9.49471 3770 ft 188 kts 105°
2026-04-28 10:08 45.70410 9.51235 3617 ft 181 kts 104°
2026-04-28 10:08 45.70091 9.52977 3495 ft 178 kts 104°
2026-04-28 10:09 45.69774 9.54717 3212 ft 184 kts 104°
2026-04-28 10:09 45.69447 9.56500 2884 ft 186 kts 104°
2026-04-28 10:09 45.69121 9.58274 2607 ft 179 kts 104°
2026-04-28 10:09 45.68814 9.59945 2342 ft 165 kts 104°
2026-04-28 10:10 45.68526 9.61494 2073 ft 158 kts 104°
2026-04-28 10:10 45.68247 9.62986 1833 ft 155 kts 104°
2026-04-28 10:10 45.67964 9.64501 1594 ft 156 kts 104°
2026-04-28 10:10 45.67687 9.65983 1352 ft 155 kts 104°
2026-04-28 10:11 45.67383 9.67470 1108 ft 155 kts 105°
2026-04-28 10:11 45.67107 9.68955 887 ft 154 kts 103°
2026-04-28 10:11 45.66839 9.70403 786 ft 134 kts 105°
2026-04-28 10:11 45.66658 9.71369 773 ft 69 kts 105°
2026-04-28 10:12 45.66570 9.71848 764 ft 28 kts 105°
2026-04-28 10:12 45.66508 9.71910 763 ft 12 kts 221°
2026-04-28 10:12 45.66472 9.71797 763 ft 12 kts 253°
2026-04-28 10:12 45.66452 9.71688 765 ft 12 kts 256°
2026-04-28 10:13 45.66444 9.71548 767 ft 16 kts 278°
2026-04-28 10:13 45.66474 9.71371 769 ft 19 kts 285°
2026-04-28 10:13 45.66513 9.71188 772 ft 19 kts 291°
2026-04-28 10:13 45.66558 9.71008 777 ft 18 kts 285°
2026-04-28 10:14 45.66588 9.70839 779 ft 17 kts 286°
2026-04-28 10:14 45.66621 9.70664 781 ft 17 kts 285°
2026-04-28 10:14 45.66652 9.70498 782 ft 16 kts 285°
2026-04-28 10:14 45.66683 9.70334 780 ft 17 kts 284°
2026-04-28 10:15 45.66713 9.70166 780 ft 16 kts 285°
2026-04-28 10:15 45.66737 9.70034 781 ft 6 kts 275°
2026-04-28 10:15 45.66752 9.69953 781 ft 12 kts 287°
2026-04-28 10:15 45.66719 9.69879 780 ft 10 kts 194°
2026-04-28 10:16 45.66682 9.69866 779 ft 0 kts 195°